Year,Month,Day,Hour,Minute,Value (Times are PST for temperature in C)
2013,01,17,00,00,-5.50
2013,01,17,00,01,-5.50
2013,01,17,00,02,-5.50
2013,01,17,00,03,-5.50
2013,01,17,00,04,-5.50
2013,01,17,00,05,-5.50
2013,01,17,00,06,-5.50
2013,01,17,00,07,-5.50
2013,01,17,00,08,-5.50
2013,01,17,00,09,-5.50
2013,01,17,00,10,-5.50
2013,01,17,00,11,-5.50
2013,01,17,00,12,-5.50
2013,01,17,00,13,-5.40
2013,01,17,00,14,-5.40
2013,01,17,00,15,-5.40
2013,01,17,00,16,-5.30
2013,01,17,00,17,-5.30
2013,01,17,00,18,-5.20
2013,01,17,00,19,-5.20
2013,01,17,00,20,-5.10
2013,01,17,00,21,-5.00
2013,01,17,00,22,-5.00
2013,01,17,00,23,-5.00
2013,01,17,00,24,-5.00
2013,01,17,00,25,-5.00
2013,01,17,00,26,-4.90
2013,01,17,00,27,-4.90
2013,01,17,00,28,-4.90
2013,01,17,00,29,-4.90
2013,01,17,00,30,-4.90
2013,01,17,00,31,-4.80
2013,01,17,00,32,-4.90
2013,01,17,00,33,-4.90
2013,01,17,00,34,-4.90
2013,01,17,00,35,-4.90
2013,01,17,00,36,-4.90
2013,01,17,00,37,-4.90
2013,01,17,00,38,-4.90
2013,01,17,00,39,-4.90
2013,01,17,00,40,-4.90
2013,01,17,00,41,-4.80
2013,01,17,00,42,-4.80
2013,01,17,00,43,-4.80
2013,01,17,00,44,-4.80
2013,01,17,00,45,-4.70
2013,01,17,00,46,-4.70
2013,01,17,00,47,-4.60
2013,01,17,00,48,-4.60
2013,01,17,00,49,-4.60
2013,01,17,00,50,-4.50
2013,01,17,00,51,-4.50
2013,01,17,00,52,-4.50
2013,01,17,00,53,-4.50
2013,01,17,00,54,-4.50
2013,01,17,00,55,-4.50
2013,01,17,00,56,-4.50
2013,01,17,00,57,-4.50
2013,01,17,00,58,-4.50
2013,01,17,00,59,-4.60
2013,01,17,01,00,-4.60
2013,01,17,01,01,-4.60
2013,01,17,01,02,-4.70
2013,01,17,01,03,-4.70
2013,01,17,01,04,-4.80
2013,01,17,01,05,-4.80
2013,01,17,01,06,-4.80
2013,01,17,01,07,-4.80
2013,01,17,01,08,-4.80
2013,01,17,01,09,-4.80
2013,01,17,01,10,-4.80
2013,01,17,01,11,-4.80
2013,01,17,01,12,-4.90
2013,01,17,01,13,-4.90
2013,01,17,01,14,-4.90
2013,01,17,01,15,-4.80
2013,01,17,01,16,-4.80
2013,01,17,01,17,-4.80
2013,01,17,01,18,-4.80
2013,01,17,01,19,-4.80
2013,01,17,01,20,-4.80
2013,01,17,01,21,-4.80
2013,01,17,01,22,-4.80
2013,01,17,01,23,-4.80
2013,01,17,01,24,-4.80
2013,01,17,01,25,-4.80
2013,01,17,01,26,-4.80
2013,01,17,01,27,-4.80
2013,01,17,01,28,-4.80
2013,01,17,01,29,-4.80
2013,01,17,01,30,-4.70
2013,01,17,01,31,-4.70
2013,01,17,01,32,-4.70
2013,01,17,01,33,-4.70
2013,01,17,01,34,-4.60
2013,01,17,01,35,-4.60
2013,01,17,01,36,-4.60
2013,01,17,01,37,-4.60
2013,01,17,01,38,-4.60
2013,01,17,01,39,-4.50
2013,01,17,01,40,-4.50
2013,01,17,01,41,-4.50
2013,01,17,01,42,-4.40
2013,01,17,01,43,-4.30
2013,01,17,01,44,-4.30
2013,01,17,01,45,-4.10
2013,01,17,01,46,-4.10
2013,01,17,01,47,-4.00
2013,01,17,01,48,-4.00
2013,01,17,01,49,-4.00
2013,01,17,01,50,-3.90
2013,01,17,01,51,-3.90
2013,01,17,01,52,-3.90
2013,01,17,01,53,-3.90
2013,01,17,01,54,-3.90
2013,01,17,01,55,-4.00
2013,01,17,01,56,-4.00
2013,01,17,01,57,-4.00
2013,01,17,01,58,-4.00
2013,01,17,01,59,-4.10
2013,01,17,02,00,-4.10
2013,01,17,02,01,-4.10
2013,01,17,02,02,-4.10
2013,01,17,02,03,-4.10
2013,01,17,02,04,-4.10
2013,01,17,02,05,-4.10
2013,01,17,02,06,-4.20
2013,01,17,02,07,-4.20
2013,01,17,02,08,-4.20
2013,01,17,02,09,-4.20
2013,01,17,02,10,-4.20
2013,01,17,02,11,-4.20
2013,01,17,02,12,-4.20
2013,01,17,02,13,-4.10
2013,01,17,02,14,-4.10
2013,01,17,02,15,-4.10
2013,01,17,02,16,-4.00
2013,01,17,02,17,-4.00
2013,01,17,02,18,-4.00
2013,01,17,02,19,-4.00
2013,01,17,02,20,-4.00
2013,01,17,02,21,-4.00
2013,01,17,02,22,-4.00
2013,01,17,02,23,-4.00
2013,01,17,02,24,-4.00
2013,01,17,02,25,-4.00
2013,01,17,02,26,-4.00
2013,01,17,02,27,-4.00
2013,01,17,02,28,-4.00
2013,01,17,02,29,-4.00
2013,01,17,02,30,-4.00
2013,01,17,02,31,-4.00
2013,01,17,02,32,-4.00
2013,01,17,02,33,-3.90
2013,01,17,02,34,-3.90
2013,01,17,02,35,-3.90
2013,01,17,02,36,-3.90
2013,01,17,02,37,-3.80
2013,01,17,02,38,-3.80
2013,01,17,02,39,-3.80
2013,01,17,02,40,-3.70
2013,01,17,02,41,-3.70
2013,01,17,02,42,-3.70
2013,01,17,02,43,-3.70
2013,01,17,02,44,-3.60
2013,01,17,02,45,-3.60
2013,01,17,02,46,-3.50
2013,01,17,02,47,-3.50
2013,01,17,02,48,-3.50
2013,01,17,02,49,-3.50
2013,01,17,02,50,-3.40
2013,01,17,02,51,-3.40
2013,01,17,02,52,-3.40
2013,01,17,02,53,-3.40
2013,01,17,02,54,-3.40
2013,01,17,02,55,-3.40
2013,01,17,02,56,-3.30
2013,01,17,02,57,-3.20
2013,01,17,02,58,-3.20
2013,01,17,02,59,-3.10
2013,01,17,03,00,-3.10
2013,01,17,03,01,-3.00
2013,01,17,03,02,-3.00
2013,01,17,03,03,-2.90
2013,01,17,03,04,-2.80
2013,01,17,03,05,-2.80
2013,01,17,03,06,-2.70
2013,01,17,03,07,-2.60
2013,01,17,03,08,-2.60
2013,01,17,03,09,-2.50
2013,01,17,03,10,-2.40
2013,01,17,03,11,-2.30
2013,01,17,03,12,-2.30
2013,01,17,03,13,-2.20
2013,01,17,03,14,-2.20
2013,01,17,03,15,-2.10
2013,01,17,03,16,-2.00
2013,01,17,03,17,-1.90
2013,01,17,03,18,-1.90
2013,01,17,03,19,-1.90
2013,01,17,03,20,-1.80
2013,01,17,03,21,-1.70
2013,01,17,03,22,-1.70
2013,01,17,03,23,-1.60
2013,01,17,03,24,-1.60
2013,01,17,03,25,-1.60
2013,01,17,03,26,-1.50
2013,01,17,03,27,-1.50
2013,01,17,03,28,-1.50
2013,01,17,03,29,-1.40
2013,01,17,03,30,-1.40
2013,01,17,03,31,-1.40
2013,01,17,03,32,-1.40
2013,01,17,03,33,-1.40
2013,01,17,03,34,-1.50
2013,01,17,03,35,-1.60
2013,01,17,03,36,-1.60
2013,01,17,03,37,-1.60
2013,01,17,03,38,-1.60
2013,01,17,03,39,-1.60
2013,01,17,03,40,-1.60
2013,01,17,03,41,-1.60
2013,01,17,03,42,-1.60
2013,01,17,03,43,-1.60
2013,01,17,03,44,-1.60
2013,01,17,03,45,-1.50
2013,01,17,03,46,-1.50
2013,01,17,03,47,-1.40
2013,01,17,03,48,-1.40
2013,01,17,03,49,-1.40
2013,01,17,03,50,-1.40
2013,01,17,03,51,-1.30
2013,01,17,03,52,-1.30
2013,01,17,03,53,-1.30
2013,01,17,03,54,-1.30
2013,01,17,03,55,-1.30
2013,01,17,03,56,-1.30
2013,01,17,03,57,-1.30
2013,01,17,03,58,-1.30
2013,01,17,03,59,-1.20
2013,01,17,04,00,-1.20
2013,01,17,04,01,-1.20
2013,01,17,04,02,-1.20
2013,01,17,04,03,-1.10
2013,01,17,04,04,-1.10
2013,01,17,04,05,-1.10
2013,01,17,04,06,-1.00
2013,01,17,04,07,-1.00
2013,01,17,04,08,-1.00
2013,01,17,04,09,-1.00
2013,01,17,04,10,-1.00
2013,01,17,04,11,-1.00
2013,01,17,04,12,-0.90
2013,01,17,04,13,-0.90
2013,01,17,04,14,-0.90
2013,01,17,04,15,-0.90
2013,01,17,04,16,-0.90
2013,01,17,04,17,-0.90
2013,01,17,04,18,-0.90
2013,01,17,04,19,-0.80
2013,01,17,04,20,-0.80
2013,01,17,04,21,-0.80
2013,01,17,04,22,-0.80
2013,01,17,04,23,-0.70
2013,01,17,04,24,-0.70
2013,01,17,04,25,-0.70
2013,01,17,04,26,-0.70
2013,01,17,04,27,-0.60
2013,01,17,04,28,-0.60
2013,01,17,04,29,-0.60
2013,01,17,04,30,-0.60
2013,01,17,04,31,-0.50
2013,01,17,04,32,-0.50
2013,01,17,04,33,-0.50
2013,01,17,04,34,-0.50
2013,01,17,04,35,-0.50
2013,01,17,04,36,-0.50
2013,01,17,04,37,-0.50
2013,01,17,04,38,-0.50
2013,01,17,04,39,-0.50
2013,01,17,04,40,-0.60
2013,01,17,04,41,-0.50
2013,01,17,04,42,-0.50
2013,01,17,04,43,-0.50
2013,01,17,04,44,-0.50
2013,01,17,04,45,-0.50
2013,01,17,04,46,-0.40
2013,01,17,04,47,-0.40
2013,01,17,04,48,-0.40
2013,01,17,04,49,-0.30
2013,01,17,04,50,-0.30
2013,01,17,04,51,-0.20
2013,01,17,04,52,-0.10
2013,01,17,04,53,-3.30
2013,01,17,04,54,-10.10
2013,01,17,04,55,-17.80
2013,01,17,04,56,-17.80
2013,01,17,04,57,-17.70
2013,01,17,04,58,-17.70
2013,01,17,04,59,-17.70
2013,01,17,05,00,-17.70
2013,01,17,05,01,-17.70
2013,01,17,05,02,-17.70
2013,01,17,05,03,-17.70
2013,01,17,05,04,-17.70
2013,01,17,05,05,-17.60
2013,01,17,05,06,-17.60
2013,01,17,05,07,-17.60
2013,01,17,05,08,-17.60
2013,01,17,05,09,-17.60
2013,01,17,05,10,-17.50
2013,01,17,05,11,-17.50
2013,01,17,05,12,-17.50
2013,01,17,05,13,-17.50
2013,01,17,05,14,-17.50
2013,01,17,05,15,-17.50
2013,01,17,05,16,-17.50
2013,01,17,05,17,-17.50
2013,01,17,05,18,-17.50
2013,01,17,05,19,-17.50
2013,01,17,05,20,-17.50
2013,01,17,05,21,-17.50
2013,01,17,05,22,-17.50
2013,01,17,05,23,-17.50
2013,01,17,05,24,-17.50
2013,01,17,05,25,-17.50
2013,01,17,05,26,-17.50
2013,01,17,05,27,-17.50
2013,01,17,05,28,-17.50
2013,01,17,05,29,-17.50
2013,01,17,05,30,-17.50
2013,01,17,05,31,-17.50
2013,01,17,05,32,-17.50
2013,01,17,05,33,-17.50
2013,01,17,05,34,-17.50
2013,01,17,05,35,-17.50
2013,01,17,05,36,-17.50
2013,01,17,05,37,-17.50
2013,01,17,05,38,-17.40
2013,01,17,05,39,-17.40
2013,01,17,05,40,-17.40
2013,01,17,05,41,-17.40
2013,01,17,05,42,-17.40
2013,01,17,05,43,-17.40
2013,01,17,05,44,-17.40
2013,01,17,05,45,-17.40
2013,01,17,05,46,-17.40
2013,01,17,05,47,-17.40
2013,01,17,05,48,-17.40
2013,01,17,05,49,-17.40
2013,01,17,05,50,-17.30
2013,01,17,05,51,-17.30
2013,01,17,05,52,-17.30
2013,01,17,05,53,-17.30
2013,01,17,05,54,-17.30
2013,01,17,05,55,-17.30
2013,01,17,05,56,-17.30
2013,01,17,05,57,-17.30
2013,01,17,05,58,-17.40
2013,01,17,05,59,-17.40
2013,01,17,06,00,-17.40
2013,01,17,06,01,-17.50
2013,01,17,06,02,-17.50
2013,01,17,06,03,-17.60
2013,01,17,06,04,-17.60
2013,01,17,06,05,-17.60
2013,01,17,06,06,-17.60
2013,01,17,06,07,-17.60
2013,01,17,06,08,-17.60
2013,01,17,06,09,-17.60
2013,01,17,06,10,-17.60
2013,01,17,06,11,-17.70
2013,01,17,06,12,-17.70
2013,01,17,06,13,-17.70
2013,01,17,06,14,-17.70
2013,01,17,06,15,-17.60
2013,01,17,06,16,-17.60
2013,01,17,06,17,-17.70
2013,01,17,06,18,-17.60
2013,01,17,06,19,-17.60
2013,01,17,06,20,-17.60
2013,01,17,06,21,-17.60
2013,01,17,06,22,-17.60
2013,01,17,06,23,-17.60
2013,01,17,06,24,-17.60
2013,01,17,06,25,-17.60
2013,01,17,06,26,-17.50
2013,01,17,06,27,-17.50
2013,01,17,06,28,-17.50
2013,01,17,06,29,-17.50
2013,01,17,06,30,-17.50
2013,01,17,06,31,-17.40
2013,01,17,06,32,-17.40
2013,01,17,06,33,-17.40
2013,01,17,06,34,-17.30
2013,01,17,06,35,-17.30
2013,01,17,06,36,-17.20
2013,01,17,06,37,-17.20
2013,01,17,06,38,-17.10
2013,01,17,06,39,-17.10
2013,01,17,06,40,-17.10
2013,01,17,06,41,-17.10
2013,01,17,06,42,-17.10
2013,01,17,06,43,-17.10
2013,01,17,06,44,-17.10
2013,01,17,06,45,-17.10
2013,01,17,06,46,-17.10
2013,01,17,06,47,-17.10
2013,01,17,06,48,-17.00
2013,01,17,06,49,-17.00
2013,01,17,06,50,-17.00
2013,01,17,06,51,-16.90
2013,01,17,06,52,-16.90
2013,01,17,06,53,-16.90
2013,01,17,06,54,-16.90
2013,01,17,06,55,-16.90
2013,01,17,06,56,-16.80
2013,01,17,06,57,-16.80
2013,01,17,06,58,-16.80
2013,01,17,06,59,-16.80
2013,01,17,07,00,-16.80
2013,01,17,07,01,-16.80
2013,01,17,07,02,-16.80
2013,01,17,07,03,-16.70
2013,01,17,07,04,-16.70
2013,01,17,07,05,-16.70
2013,01,17,07,06,-16.70
2013,01,17,07,07,-16.60
2013,01,17,07,08,-16.60
2013,01,17,07,09,-16.60
2013,01,17,07,10,-16.60
2013,01,17,07,11,-16.50
2013,01,17,07,12,-16.50
2013,01,17,07,13,-16.50
2013,01,17,07,14,-16.50
2013,01,17,07,15,-16.50
2013,01,17,07,16,-16.50
2013,01,17,07,17,-16.50
2013,01,17,07,18,-16.50
2013,01,17,07,19,-16.50
2013,01,17,07,20,-16.50
2013,01,17,07,21,-16.50
2013,01,17,07,22,-16.50
2013,01,17,07,23,-16.50
2013,01,17,07,24,-16.50
2013,01,17,07,25,-16.50
2013,01,17,07,26,-16.50
2013,01,17,07,27,-16.50
2013,01,17,07,28,-16.50
2013,01,17,07,29,-16.50
2013,01,17,07,30,-16.50
2013,01,17,07,31,-16.50
2013,01,17,07,32,-16.40
2013,01,17,07,33,-16.40
2013,01,17,07,34,-16.40
2013,01,17,07,35,-16.40
2013,01,17,07,36,-16.40
2013,01,17,07,37,-16.40
2013,01,17,07,38,-16.40
2013,01,17,07,39,-16.40
2013,01,17,07,40,-16.40
2013,01,17,07,41,-16.40
2013,01,17,07,42,-16.40
2013,01,17,07,43,-16.40
2013,01,17,07,44,-16.40
2013,01,17,07,45,-16.40
2013,01,17,07,46,-16.40
2013,01,17,07,47,-16.40
2013,01,17,07,48,-16.40
2013,01,17,07,49,-16.40
2013,01,17,07,50,-16.40
2013,01,17,07,51,-16.40
2013,01,17,07,52,-16.40
2013,01,17,07,53,-16.30
2013,01,17,07,54,-16.30
2013,01,17,07,55,-16.30
2013,01,17,07,56,-16.30
2013,01,17,07,57,-16.30
2013,01,17,07,58,-16.30
2013,01,17,07,59,-16.30
2013,01,17,08,00,-16.30
2013,01,17,08,01,-16.30
2013,01,17,08,02,-16.30
2013,01,17,08,03,-16.30
2013,01,17,08,04,-16.20
2013,01,17,08,05,-16.20
2013,01,17,08,06,-16.20
2013,01,17,08,07,-16.20
2013,01,17,08,08,-16.10
2013,01,17,08,09,-16.10
2013,01,17,08,10,-16.00
2013,01,17,08,11,-16.00
2013,01,17,08,12,-15.90
2013,01,17,08,13,-15.90
2013,01,17,08,14,-15.90
2013,01,17,08,15,-15.90
2013,01,17,08,16,-15.80
2013,01,17,08,17,-15.80
2013,01,17,08,18,-15.90
2013,01,17,08,19,-15.90
2013,01,17,08,20,-15.90
2013,01,17,08,21,-15.90
2013,01,17,08,22,-15.90
2013,01,17,08,23,-15.90
2013,01,17,08,24,-15.90
2013,01,17,08,25,-15.90
2013,01,17,08,26,-15.90
2013,01,17,08,27,-15.90
2013,01,17,08,28,-15.90
2013,01,17,08,29,-15.90
2013,01,17,08,30,-15.90
2013,01,17,08,31,-15.90
2013,01,17,08,32,-15.90
2013,01,17,08,33,-15.90
2013,01,17,08,34,-15.90
2013,01,17,08,35,-15.90
2013,01,17,08,36,-16.00
2013,01,17,08,37,-16.00
2013,01,17,08,38,-16.00
2013,01,17,08,39,-16.00
2013,01,17,08,40,-16.00
2013,01,17,08,41,-16.00
2013,01,17,08,42,-16.10
2013,01,17,08,43,-16.10
2013,01,17,08,44,-16.10
2013,01,17,08,45,-16.10
2013,01,17,08,46,-16.10
2013,01,17,08,47,-16.10
2013,01,17,08,48,-16.10
2013,01,17,08,49,-16.10
2013,01,17,08,50,-16.00
2013,01,17,08,51,-15.90
2013,01,17,08,52,-15.90
2013,01,17,08,53,-15.90
2013,01,17,08,54,-15.80
2013,01,17,08,55,-15.70
2013,01,17,08,56,-15.70
2013,01,17,08,57,-15.70
2013,01,17,08,58,-15.60
2013,01,17,08,59,-15.60
2013,01,17,09,00,-15.60
2013,01,17,09,01,-15.50
2013,01,17,09,02,-15.50
2013,01,17,09,03,-15.40
2013,01,17,09,04,-15.40
2013,01,17,09,05,-15.30
2013,01,17,09,06,-15.30
2013,01,17,09,07,-15.30
2013,01,17,09,08,-15.20
2013,01,17,09,09,-15.10
2013,01,17,09,10,-15.10
2013,01,17,09,11,-15.00
2013,01,17,09,12,-14.90
2013,01,17,09,13,-14.90
2013,01,17,09,14,-14.80
2013,01,17,09,15,-14.80
2013,01,17,09,16,-14.80
2013,01,17,09,17,-14.80
2013,01,17,09,18,-14.80
2013,01,17,09,19,-14.80
2013,01,17,09,20,-14.70
2013,01,17,09,21,-14.70
2013,01,17,09,22,-14.70
2013,01,17,09,23,-14.70
2013,01,17,09,24,-14.60
2013,01,17,09,25,-14.60
2013,01,17,09,26,-14.60
2013,01,17,09,27,-14.50
2013,01,17,09,28,-14.50
2013,01,17,09,29,-14.50
2013,01,17,09,30,-14.50
2013,01,17,09,31,-14.40
2013,01,17,09,32,-14.40
2013,01,17,09,33,-14.40
2013,01,17,09,34,-14.30
2013,01,17,09,35,-14.30
2013,01,17,09,36,-14.30
2013,01,17,09,37,-14.30
2013,01,17,09,38,-14.30
2013,01,17,09,39,-14.30
2013,01,17,09,40,-14.20
2013,01,17,09,41,-14.20
2013,01,17,09,42,-14.20
2013,01,17,09,43,-14.20
2013,01,17,09,44,-14.20
2013,01,17,09,45,-14.20
2013,01,17,09,46,-14.20
2013,01,17,09,47,-14.20
2013,01,17,09,48,-14.20
2013,01,17,09,49,-14.20
2013,01,17,09,50,-14.20
2013,01,17,09,51,-14.20
2013,01,17,09,52,-14.20
2013,01,17,09,53,-14.10
2013,01,17,09,54,-14.10
2013,01,17,09,55,-14.10
2013,01,17,09,56,-14.10
2013,01,17,09,57,-14.10
2013,01,17,09,58,-14.00
2013,01,17,09,59,-14.00
2013,01,17,10,00,-14.00
2013,01,17,10,01,-14.00
2013,01,17,10,02,-14.00
2013,01,17,10,03,-14.00
2013,01,17,10,04,-14.00
2013,01,17,10,05,-14.00
2013,01,17,10,06,-14.00
2013,01,17,10,07,-14.10
2013,01,17,10,08,-14.10
2013,01,17,10,09,-14.10
2013,01,17,10,10,-14.10
2013,01,17,10,11,-14.10
2013,01,17,10,12,-14.10
2013,01,17,10,13,-14.10
2013,01,17,10,14,-14.10
2013,01,17,10,15,-14.10
2013,01,17,10,16,-14.10
2013,01,17,10,17,-14.10
2013,01,17,10,18,-14.10
2013,01,17,10,19,-14.10
2013,01,17,10,20,-14.10
2013,01,17,10,21,-14.10
2013,01,17,10,22,-14.10
2013,01,17,10,23,-14.10
2013,01,17,10,24,-14.10
2013,01,17,10,25,-14.10
2013,01,17,10,26,-14.10
2013,01,17,10,27,-14.10
2013,01,17,10,28,-14.10
2013,01,17,10,29,-14.00
2013,01,17,10,30,-14.00
2013,01,17,10,31,-14.00
2013,01,17,10,32,-14.00
2013,01,17,10,33,-13.90
2013,01,17,10,34,-13.80
2013,01,17,10,35,-13.70
2013,01,17,10,36,-13.70
2013,01,17,10,37,-13.70
2013,01,17,10,38,-13.60
2013,01,17,10,39,-13.50
2013,01,17,10,40,-13.40
2013,01,17,10,41,-13.30
2013,01,17,10,42,-13.20
2013,01,17,10,43,-13.10
2013,01,17,10,44,-13.10
2013,01,17,10,45,-13.10
2013,01,17,10,46,-13.10
2013,01,17,10,47,-13.10
2013,01,17,10,48,-13.10
2013,01,17,10,49,-13.10
2013,01,17,10,50,-13.20
2013,01,17,10,51,-13.20
2013,01,17,10,52,-13.20
2013,01,17,10,53,-13.30
2013,01,17,10,54,-13.30
2013,01,17,10,55,-13.30
2013,01,17,10,56,-13.30
2013,01,17,10,57,-13.30
2013,01,17,10,58,-13.40
2013,01,17,10,59,-13.40
2013,01,17,11,00,-13.40
2013,01,17,11,01,-13.40
2013,01,17,11,02,-13.40
2013,01,17,11,03,-13.40
2013,01,17,11,04,-13.40
2013,01,17,11,05,-13.40
2013,01,17,11,06,-13.40
2013,01,17,11,07,-13.40
2013,01,17,11,08,-13.40
2013,01,17,11,09,-13.40
2013,01,17,11,10,-13.30
2013,01,17,11,11,-13.30
2013,01,17,11,12,-13.30
2013,01,17,11,13,-13.30
2013,01,17,11,14,-13.30
2013,01,17,11,15,-13.30
2013,01,17,11,16,-13.30
2013,01,17,11,17,-13.30
2013,01,17,11,18,-13.30
2013,01,17,11,19,-13.30
2013,01,17,11,20,-13.30
2013,01,17,11,21,-13.30
2013,01,17,11,22,-13.30
2013,01,17,11,23,-13.30
2013,01,17,11,24,-13.30
2013,01,17,11,25,-13.30
2013,01,17,11,26,-13.30
2013,01,17,11,27,-13.30
2013,01,17,11,28,-13.30
2013,01,17,11,29,-13.20
2013,01,17,11,30,-13.20
2013,01,17,11,31,-13.20
2013,01,17,11,32,-13.20
2013,01,17,11,33,-13.20
2013,01,17,11,34,-13.20
2013,01,17,11,35,-13.20
2013,01,17,11,36,-13.20
2013,01,17,11,37,-13.20
2013,01,17,11,38,-13.20
2013,01,17,11,39,-13.20
2013,01,17,11,40,-13.20
2013,01,17,11,41,-13.20
2013,01,17,11,42,-13.20
2013,01,17,11,43,-13.20
2013,01,17,11,44,-13.20
2013,01,17,11,45,-13.20
2013,01,17,11,46,-13.20
2013,01,17,11,47,-13.10
2013,01,17,11,48,-13.10
2013,01,17,11,49,-13.10
2013,01,17,11,50,-13.10
2013,01,17,11,51,-13.10
2013,01,17,11,52,-13.10
2013,01,17,11,53,-13.10
2013,01,17,11,54,-13.00
2013,01,17,11,55,-13.00
2013,01,17,11,56,-13.00
2013,01,17,11,57,-13.00
2013,01,17,11,58,-12.90
2013,01,17,11,59,-12.90
2013,01,17,12,00,-12.90
2013,01,17,12,01,-12.90
2013,01,17,12,02,-12.90
2013,01,17,12,03,-12.80
2013,01,17,12,04,-12.80
2013,01,17,12,05,-12.80
2013,01,17,12,06,-12.80
2013,01,17,12,07,-12.80
2013,01,17,12,08,-12.80
2013,01,17,12,09,-12.80
2013,01,17,12,10,-12.70
2013,01,17,12,11,-12.70
2013,01,17,12,12,-12.60
2013,01,17,12,13,-12.60
2013,01,17,12,14,-12.60
2013,01,17,12,15,-12.60
2013,01,17,12,16,-12.60
2013,01,17,12,17,-12.60
2013,01,17,12,18,-12.60
2013,01,17,12,19,-12.60
2013,01,17,12,20,-12.60
2013,01,17,12,21,-12.50
2013,01,17,12,22,-12.50
2013,01,17,12,23,-12.40
2013,01,17,12,24,-12.40
2013,01,17,12,25,-12.30
2013,01,17,12,26,-12.30
2013,01,17,12,27,-12.30
2013,01,17,12,28,-12.30
2013,01,17,12,29,-12.20
2013,01,17,12,30,-12.20
2013,01,17,12,31,-12.20
2013,01,17,12,32,-12.20
2013,01,17,12,33,-12.20
2013,01,17,12,34,-12.20
2013,01,17,12,35,-12.20
2013,01,17,12,36,-12.20
2013,01,17,12,37,-12.20
2013,01,17,12,38,-12.20
2013,01,17,12,39,-12.20
2013,01,17,12,40,-12.10
2013,01,17,12,41,-12.10
2013,01,17,12,42,-12.10
2013,01,17,12,43,-12.10
2013,01,17,12,44,-12.10
2013,01,17,12,45,-12.10
2013,01,17,12,46,-12.10
2013,01,17,12,47,-12.10
2013,01,17,12,48,-12.10
2013,01,17,12,49,-12.10
2013,01,17,12,50,-12.10
2013,01,17,12,51,-12.10
2013,01,17,12,52,-12.10
2013,01,17,12,53,-12.10
2013,01,17,12,54,-12.00
2013,01,17,12,55,-12.00
2013,01,17,12,56,-12.00
2013,01,17,12,57,-12.00
2013,01,17,12,58,-12.10
2013,01,17,12,59,-12.10
2013,01,17,13,00,-12.10
2013,01,17,13,01,-12.10
2013,01,17,13,02,-12.00
2013,01,17,13,03,-12.10
2013,01,17,13,04,-12.10
2013,01,17,13,05,-12.10
2013,01,17,13,06,-12.10
2013,01,17,13,07,-12.10
2013,01,17,13,08,-12.10
2013,01,17,13,09,-12.10
2013,01,17,13,10,-12.10
2013,01,17,13,11,-12.10
2013,01,17,13,12,-12.10
2013,01,17,13,13,-12.10
2013,01,17,13,14,-12.10
2013,01,17,13,15,-12.10
2013,01,17,13,16,-12.10
2013,01,17,13,17,-12.10
2013,01,17,13,18,-12.10
2013,01,17,13,19,-12.10
2013,01,17,13,20,-12.10
2013,01,17,13,21,-12.10
2013,01,17,13,22,-12.10
2013,01,17,13,23,-12.10
2013,01,17,13,24,-12.10
2013,01,17,13,25,-12.20
2013,01,17,13,26,-12.20
2013,01,17,13,27,-12.20
2013,01,17,13,28,-12.20
2013,01,17,13,29,-12.20
2013,01,17,13,30,-12.20
2013,01,17,13,31,-12.20
2013,01,17,13,32,-12.20
2013,01,17,13,33,-12.20
2013,01,17,13,34,-12.20
2013,01,17,13,35,-12.20
2013,01,17,13,36,-12.20
2013,01,17,13,37,-12.20
2013,01,17,13,38,-12.20
2013,01,17,13,39,-12.20
2013,01,17,13,40,-12.30
2013,01,17,13,41,-12.30
2013,01,17,13,42,-12.30
2013,01,17,13,43,-12.30
2013,01,17,13,44,-12.30
2013,01,17,13,45,-12.30
2013,01,17,13,46,-12.30
2013,01,17,13,47,-12.30
2013,01,17,13,48,-12.30
2013,01,17,13,49,-12.30
2013,01,17,13,50,-12.30
2013,01,17,13,51,-12.30
2013,01,17,13,52,-12.30
2013,01,17,13,53,-12.30
2013,01,17,13,54,-12.30
2013,01,17,13,55,-12.30
2013,01,17,13,56,-12.30
2013,01,17,13,57,-12.40
2013,01,17,13,58,-12.40
2013,01,17,13,59,-12.40
2013,01,17,14,00,-12.40
2013,01,17,14,01,-12.40
2013,01,17,14,02,-12.40
2013,01,17,14,03,-12.40
2013,01,17,14,04,-12.40
2013,01,17,14,05,-12.40
2013,01,17,14,06,-12.40
2013,01,17,14,07,-12.40
2013,01,17,14,08,-12.40
2013,01,17,14,09,-12.40
2013,01,17,14,10,-12.50
2013,01,17,14,11,-12.50
2013,01,17,14,12,-12.50
2013,01,17,14,13,-12.50
2013,01,17,14,14,-12.50
2013,01,17,14,15,-12.50
2013,01,17,14,16,-12.50
2013,01,17,14,17,-12.50
2013,01,17,14,18,-12.50
2013,01,17,14,19,-12.50
2013,01,17,14,20,-12.50
2013,01,17,14,21,-12.50
2013,01,17,14,22,-12.50
2013,01,17,14,23,-12.50
2013,01,17,14,24,-12.50
2013,01,17,14,25,-12.60
2013,01,17,14,26,-12.60
2013,01,17,14,27,-12.60
2013,01,17,14,28,-12.60
2013,01,17,14,29,-12.60
2013,01,17,14,30,-12.60
2013,01,17,14,31,-12.60
2013,01,17,14,32,-12.60
2013,01,17,14,33,-12.60
2013,01,17,14,34,-12.60
2013,01,17,14,35,-12.60
2013,01,17,14,36,-12.60
2013,01,17,14,37,-12.60
2013,01,17,14,38,-12.70
2013,01,17,14,39,-12.70
2013,01,17,14,40,-12.70
2013,01,17,14,41,-12.70
2013,01,17,14,42,-12.70
2013,01,17,14,43,-12.80
2013,01,17,14,44,-12.80
2013,01,17,14,45,-12.80
2013,01,17,14,46,-12.80
2013,01,17,14,47,-12.80
2013,01,17,14,48,-12.80
2013,01,17,14,49,-12.80
2013,01,17,14,50,-12.80
2013,01,17,14,51,-12.80
2013,01,17,14,52,-12.80
2013,01,17,14,53,-12.80
2013,01,17,14,54,-12.80
2013,01,17,14,55,-12.80
2013,01,17,14,56,-12.80
2013,01,17,14,57,-12.80
2013,01,17,14,58,-12.80
2013,01,17,14,59,-12.80
2013,01,17,15,00,-12.80
2013,01,17,15,01,-12.80
2013,01,17,15,02,-12.80
2013,01,17,15,03,-12.80
2013,01,17,15,04,-12.90
2013,01,17,15,05,-12.90
2013,01,17,15,06,-12.90
2013,01,17,15,07,-12.90
2013,01,17,15,08,-13.00
2013,01,17,15,09,-13.00
2013,01,17,15,10,-13.00
2013,01,17,15,11,-13.00
2013,01,17,15,12,-13.10
2013,01,17,15,13,-13.10
2013,01,17,15,14,-13.10
2013,01,17,15,15,-13.20
2013,01,17,15,16,-13.20
2013,01,17,15,17,-13.20
2013,01,17,15,18,-13.20
2013,01,17,15,19,-13.20
2013,01,17,15,20,-13.20
2013,01,17,15,21,-13.20
2013,01,17,15,22,-13.30
2013,01,17,15,23,-13.30
2013,01,17,15,24,-13.30
2013,01,17,15,25,-13.30
2013,01,17,15,26,-13.30
2013,01,17,15,27,-13.30
2013,01,17,15,28,-13.30
2013,01,17,15,29,-13.30
2013,01,17,15,30,-13.30
2013,01,17,15,31,-13.30
2013,01,17,15,32,-13.30
2013,01,17,15,33,-13.30
2013,01,17,15,34,-13.30
2013,01,17,15,35,-13.40
2013,01,17,15,36,-13.40
2013,01,17,15,37,-13.40
2013,01,17,15,38,-13.40
2013,01,17,15,39,-13.40
2013,01,17,15,40,-13.40
2013,01,17,15,41,-13.50
2013,01,17,15,42,-13.50
2013,01,17,15,43,-13.50
2013,01,17,15,44,-13.50
2013,01,17,15,45,-13.50
2013,01,17,15,46,-13.60
2013,01,17,15,47,-13.60
2013,01,17,15,48,-13.60
2013,01,17,15,49,-13.60
2013,01,17,15,50,-13.60
2013,01,17,15,51,-13.70
2013,01,17,15,52,-13.70
2013,01,17,15,53,-13.70
2013,01,17,15,54,-13.70
2013,01,17,15,55,-13.80
2013,01,17,15,56,-13.80
2013,01,17,15,57,-13.80
2013,01,17,15,58,-13.80
2013,01,17,15,59,-13.80
2013,01,17,16,00,-13.90
2013,01,17,16,01,-13.90
2013,01,17,16,02,-13.90
2013,01,17,16,03,-13.90
2013,01,17,16,04,-13.90
2013,01,17,16,05,-13.90
2013,01,17,16,06,-13.90
2013,01,17,16,07,-13.90
2013,01,17,16,08,-14.00
2013,01,17,16,09,-14.00
2013,01,17,16,10,-14.10
2013,01,17,16,11,-14.10
2013,01,17,16,12,-14.10
2013,01,17,16,13,-14.10
2013,01,17,16,14,-14.10
2013,01,17,16,15,-14.20
2013,01,17,16,16,-14.20
2013,01,17,16,17,-14.20
2013,01,17,16,18,-14.20
2013,01,17,16,19,-14.20
2013,01,17,16,20,-14.20
2013,01,17,16,21,-14.20
2013,01,17,16,22,-14.30
2013,01,17,16,23,-14.30
2013,01,17,16,24,-14.30
2013,01,17,16,25,-14.30
2013,01,17,16,26,-14.30
2013,01,17,16,27,-14.40
2013,01,17,16,28,-14.40
2013,01,17,16,29,-14.40
2013,01,17,16,30,-14.50
2013,01,17,16,31,-14.50
2013,01,17,16,32,-14.50
2013,01,17,16,33,-14.60
2013,01,17,16,34,-14.60
2013,01,17,16,35,-14.60
2013,01,17,16,36,-14.60
2013,01,17,16,37,-14.60
2013,01,17,16,38,-14.70
2013,01,17,16,39,-14.70
2013,01,17,16,40,-14.70
2013,01,17,16,41,-14.70
2013,01,17,16,42,-14.70
2013,01,17,16,43,-14.70
2013,01,17,16,44,-14.70
2013,01,17,16,45,-14.80
2013,01,17,16,46,-14.80
2013,01,17,16,47,-14.80
2013,01,17,16,48,-14.80